Redmond, OR

6:14 AM PST on November 14, 2019 (GMT -0800)
Roberts Field Airport

Weather History for KRDM - September, 2019

Change the Weather History Date:

Wednesday, September 11, 2019

  Actual Average Record
Temperature  
Mean Temperature 58 °F 59 °F  
Max Temperature 75 °F 78 °F 95 °F (2011)
Min Temperature 41 °F 39 °F 28 °F (2012)
Degree Days  
Heating Degree Days 7 7  
Month to date heating degree days 25 65  
Since 1 July heating degree days 72 214  
Cooling Degree Days 0 1  
Month to date cooling degree days 37 11  
Year to date cooling degree days 293 217  
Growing Degree Days 8 (Base 50)    
Moisture  
Dew Point 42 °F    
Average Humidity 59    
Maximum Humidity 89    
Minimum Humidity 29    
Precipitation  
Precipitation 0.00 in 0.02 in 0.37 in (1966)
Month to date precipitation 0.64 0.15  
Year to date precipitation 8.10 5.88  
Sea Level Pressure  
Sea Level Pressure 30.14 in    
Wind  
Wind Speed 5 mph (West)    
Max Wind Speed 10 mph    
Max Gust Speed 14 mph    
Visibility 10 miles    
Events      
T = Trace of Precipitation, MM = Missing Value Source: NWS Daily Summary

Daily Weather History Graph

Daily Weather History Graph

Search for Another Location

Airport or City:

Astronomy

Sep. 11, 2019 Rise Set
Actual Time 6:38 AM PDT 7:22 PM PDT
Civil Twilight 6:09 AM PDT 7:51 PM PDT
Nautical Twilight 5:34 AM PDT 8:26 PM PDT
Astronomical Twilight 4:58 AM PDT 9:02 PM PDT
Moon 6:44 PM PDT (9/11) 3:58 AM PDT (9/11)
Length of Visible Light 13h 42m
Length of Day
12h 43m
Waxing Gibbous, 95% of the Moon is Illuminated
Sep 11
Waxing Gibbous
Sep 13
Full
Sep 21
Last Quarter
Sep 28
New
Oct 5
First Quarter

Hourly Weather History & Observations

Time (PDT) Temp. Windchill Dew Point Humidity Pressure Visibility Wind Dir Wind Speed Gust Speed Precip Events Conditions
12:56 AM 50.0 °F - 44.1 °F 80% 30.05 in 10.0 mi SW 3.5 mph - N/A   Mostly Cloudy
1:56 AM 46.9 °F - 43.0 °F 86% 30.06 in 10.0 mi South 4.6 mph - N/A   Scattered Clouds
2:56 AM 46.0 °F 43.1 °F 42.1 °F 86% 30.06 in 10.0 mi South 5.8 mph - N/A   Partly Cloudy
3:56 AM 45.0 °F 43.5 °F 41.0 °F 86% 30.07 in 10.0 mi SSE 3.5 mph - N/A   Clear
5:56 AM 42.1 °F 38.4 °F 39.0 °F 89% 30.12 in 10.0 mi SSE 5.8 mph - N/A   Scattered Clouds
6:56 AM 42.1 °F 37.7 °F 37.9 °F 85% 30.14 in 10.0 mi SSE 6.9 mph - N/A   Clear
7:56 AM 46.9 °F - 42.1 °F 83% 30.16 in 10.0 mi SSE 5.8 mph - N/A   Clear
8:56 AM 53.1 °F - 43.0 °F 69% 30.17 in 10.0 mi South 4.6 mph - N/A   Clear
9:56 AM 59.0 °F - 44.1 °F 58% 30.18 in 10.0 mi Calm Calm - N/A   Clear
10:56 AM 63.0 °F - 43.0 °F 48% 30.18 in 10.0 mi North 3.5 mph - N/A   Clear
11:11 AM 62.6 °F - 41.0 °F 45% 30.19 in 10.0 mi ENE 6.9 mph - N/A   Clear
11:56 AM 66.9 °F - 42.1 °F 40% 30.17 in 10.0 mi SE 8.1 mph - N/A   Clear
12:56 PM 68.0 °F - 42.1 °F 39% 30.16 in 10.0 mi Variable 6.9 mph - N/A   Clear
1:56 PM 70.0 °F - 41.0 °F 35% 30.15 in 10.0 mi NNW 3.5 mph - N/A   Clear
2:56 PM 73.0 °F - 39.9 °F 30% 30.13 in 10.0 mi WNW 5.8 mph - N/A   Clear
3:56 PM 73.9 °F - 39.0 °F 28% 30.12 in 10.0 mi North 6.9 mph - N/A   Clear
4:56 PM 73.9 °F - 41.0 °F 30% 30.13 in 10.0 mi North 8.1 mph - N/A   Clear
5:56 PM 72.0 °F - 41.0 °F 33% 30.14 in 10.0 mi NNW 5.8 mph - N/A   Clear
6:56 PM 70.0 °F - 41.0 °F 35% 30.14 in 10.0 mi North 4.6 mph - N/A   Clear
7:56 PM 62.1 °F - 43.0 °F 50% 30.17 in 10.0 mi NNE 3.5 mph - N/A   Clear
8:56 PM 63.0 °F - 45.0 °F 52% 30.17 in 10.0 mi WNW 5.8 mph - N/A   Clear
9:56 PM 61.0 °F - 45.0 °F 56% 30.17 in 10.0 mi NW 6.9 mph - N/A   Clear
10:56 PM 52.0 °F - 43.0 °F 71% 30.19 in 10.0 mi Calm Calm - N/A   Clear
11:56 PM 51.1 °F - 44.1 °F 77% 30.19 in 10.0 mi SW 3.5 mph - N/A   Clear